• In Hungary
  • List of Countries
  • For 7 days
  • Water Temperature
  • Satellite Maps
  • Weather Map
  • News
  • Weather Widgets
  • user-avatar
    Login

    Hourly Weather Snopki

    Today, 14 December, Thursday

    Time Temperature Precipitation Wind Pressure Humidity
    00:00 -4°C° 0 mm 5 mps 744 mmHg 81%
    01:00 -3°C° 0 mm 6 mps 742 mmHg 79%
    02:00 -3°C° 0 mm 6 mps 741 mmHg 78%
    03:00 -3°C° 0 mm 7 mps 740 mmHg 77%
    04:00 -3°C° 0 mm 7 mps 740 mmHg 75%
    05:00 -3°C° 0 mm 7 mps 739 mmHg 74%
    06:00 -3°C° 0 mm 7 mps 738 mmHg 73%
    07:00 -2°C° 0 mm 7 mps 737 mmHg 71%
    08:00 -2°C° 0.1 mm 8 mps 736 mmHg 71%
    09:00 -2°C° 0.1 mm 8 mps 736 mmHg 71%
    10:00 -2°C° 0.1 mm 8 mps 735 mmHg 70%
    11:00 -1°C° 0.3 mm 8 mps 734 mmHg 71%
    12:00 -1°C° 0.3 mm 8 mps 734 mmHg 72%
    13:00 -1°C° 0.3 mm 7 mps 733 mmHg 73%
    14:00 -1°C° 0.3 mm 6 mps 733 mmHg 76%
    15:00 -1°C° 0.3 mm 6 mps 733 mmHg 79%
    16:00 0°C° 0.3 mm 5 mps 733 mmHg 82%
    17:00 0°C° 0.9 mm 5 mps 732 mmHg 85%
    18:00 0°C° 0.9 mm 5 mps 732 mmHg 87%
    19:00 0°C° 0.9 mm 5 mps 732 mmHg 90%
    20:00 0°C° 0.4 mm 5 mps 733 mmHg 91%
    21:00 0°C° 0.4 mm 5 mps 733 mmHg 91%
    22:00 0°C° 0.4 mm 5 mps 734 mmHg 92%
    23:00 0°C° 0 mm 5 mps 734 mmHg 91%

    Tomorrow, 15 December, Friday

    Time Temperature Precipitation Wind Pressure Humidity
    00:00 0°C° 0 mm 5 mps 735 mmHg 91%
    01:00 0°C° 0 mm 5 mps 736 mmHg 91%
    02:00 -1°C° 0 mm 5 mps 736 mmHg 89%
    03:00 -1°C° 0 mm 5 mps 736 mmHg 87%
    04:00 -2°C° 0 mm 5 mps 736 mmHg 86%
    05:00 -2°C° 0.1 mm 5 mps 736 mmHg 85%
    06:00 -2°C° 0.1 mm 5 mps 737 mmHg 85%
    07:00 -2°C° 0.1 mm 4 mps 737 mmHg 85%
    08:00 -2°C° 0.1 mm 4 mps 737 mmHg 85%
    09:00 -1°C° 0.1 mm 4 mps 737 mmHg 84%
    10:00 -1°C° 0.1 mm 4 mps 737 mmHg 84%
    11:00 -1°C° 0.2 mm 4 mps 737 mmHg 85%
    12:00 -1°C° 0.2 mm 4 mps 736 mmHg 85%
    13:00 0°C° 0.2 mm 4 mps 736 mmHg 86%
    14:00 -1°C° 0.4 mm 4 mps 736 mmHg 88%
    15:00 0°C° 0.4 mm 3 mps 736 mmHg 90%
    16:00 0°C° 0.4 mm 3 mps 736 mmHg 91%
    17:00 +1°C° 0.6 mm 2 mps 736 mmHg 92%
    18:00 +1°C° 0.6 mm 2 mps 736 mmHg 93%
    19:00 -1°C° 0.6 mm 2 mps 736 mmHg 94%
    20:00 -1°C° 0 mm 2 mps 737 mmHg 94%
    21:00 -1°C° 0 mm 3 mps 737 mmHg 94%
    22:00 -2°C° 0 mm 3 mps 737 mmHg 94%
    23:00 -2°C° 0 mm 3 mps 738 mmHg 94%

    Day after tomorrow, 16 December, Saturday

    Time Temperature Precipitation Wind Pressure Humidity
    00:00 -2°C° 0 mm 3 mps 738 mmHg 94%
    01:00 -4°C° 0 mm 4 mps 739 mmHg 95%
    02:00 -4°C° 0 mm 3 mps 739 mmHg 95%
    03:00 -4°C° 0 mm 3 mps 739 mmHg 95%
    04:00 -4°C° 0 mm 3 mps 739 mmHg 95%
    05:00 -4°C° 0 mm 3 mps 739 mmHg 95%
    06:00 -4°C° 0 mm 3 mps 739 mmHg 95%
    07:00 -4°C° 0 mm 3 mps 739 mmHg 95%
    08:00 -4°C° 0 mm 3 mps 740 mmHg 94%
    09:00 -2°C° 0 mm 3 mps 740 mmHg 93%
    10:00 -2°C° 0 mm 3 mps 740 mmHg 91%
    11:00 -2°C° 0 mm 3 mps 740 mmHg 91%
    12:00 -1°C° 0 mm 3 mps 741 mmHg 90%
    13:00 -1°C° 0 mm 3 mps 741 mmHg 90%
    14:00 -1°C° 0 mm 3 mps 741 mmHg 91%
    15:00 -2°C° 0 mm 3 mps 741 mmHg 93%
    16:00 -2°C° 0 mm 3 mps 741 mmHg 94%
    17:00 -2°C° 0 mm 3 mps 742 mmHg 94%
    18:00 -1°C° 0 mm 3 mps 742 mmHg 93%
    19:00 -1°C° 0 mm 3 mps 743 mmHg 93%
    20:00 -1°C° 0 mm 3 mps 743 mmHg 92%
    21:00 -1°C° 0 mm 3 mps 743 mmHg 92%
    22:00 -1°C° 0 mm 3 mps 744 mmHg 91%
    23:00 -1°C° 0 mm 3 mps 744 mmHg 91%

    17 December, Sunday

    Time Temperature Precipitation Wind Pressure Humidity
    00:00 -2°C° 0 mm 3 mps 744 mmHg 91%
    01:00 -2°C° 0 mm 3 mps 745 mmHg 90%
    02:00 -2°C° 0 mm 3 mps 745 mmHg 91%
    03:00 -2°C° 0 mm 3 mps 745 mmHg 91%
    04:00 -1°C° 0 mm 3 mps 745 mmHg 91%
    05:00 -1°C° 0 mm 3 mps 745 mmHg 91%
    06:00 -1°C° 0 mm 3 mps 746 mmHg 91%
    07:00 -1°C° 0 mm 3 mps 746 mmHg 91%
    08:00 -1°C° 0 mm 3 mps 747 mmHg 90%
    09:00 -1°C° 0 mm 3 mps 747 mmHg 89%
    10:00 -2°C° 0 mm 4 mps 747 mmHg 89%
    11:00 -2°C° 0 mm 4 mps 748 mmHg 89%
    12:00 -2°C° 0 mm 4 mps 748 mmHg 89%
    13:00 -2°C° 0 mm 4 mps 748 mmHg 89%
    14:00 -2°C° 0 mm 4 mps 748 mmHg 89%
    15:00 -2°C° 0 mm 4 mps 748 mmHg 90%
    16:00 -1°C° 0 mm 3 mps 748 mmHg 91%
    17:00 -3°C° 0 mm 4 mps 748 mmHg 91%
    18:00 -3°C° 0 mm 4 mps 749 mmHg 92%
    19:00 -3°C° 0 mm 4 mps 749 mmHg 92%
    20:00 -3°C° 0.1 mm 4 mps 749 mmHg 92%
    21:00 -3°C° 0.1 mm 4 mps 749 mmHg 92%
    22:00 -2°C° 0.1 mm 4 mps 749 mmHg 92%
    23:00 -2°C° 0 mm 4 mps 749 mmHg 91%

    18 December, Monday

    Time Temperature Precipitation Wind Pressure Humidity
    00:00 -3°C° 0 mm 4 mps 749 mmHg 91%
    01:00 -4°C° 0 mm 5 mps 749 mmHg 90%
    02:00 -3°C° 0 mm 4 mps 749 mmHg 91%
    03:00 -3°C° 0 mm 4 mps 749 mmHg 92%
    04:00 -3°C° 0 mm 4 mps 749 mmHg 93%
    05:00 -4°C° 0 mm 4 mps 749 mmHg 93%
    06:00 -4°C° 0 mm 4 mps 749 mmHg 93%
    07:00 -4°C° 0 mm 4 mps 749 mmHg 93%
    08:00 -4°C° 0 mm 4 mps 749 mmHg 93%
    09:00 -4°C° 0 mm 3 mps 749 mmHg 92%
    10:00 -2°C° 0 mm 3 mps 749 mmHg 92%
    11:00 -2°C° 0 mm 3 mps 749 mmHg 92%
    12:00 -2°C° 0 mm 3 mps 749 mmHg 91%
    13:00 -2°C° 0 mm 2 mps 750 mmHg 91%
    14:00 -2°C° 0 mm 2 mps 750 mmHg 92%
    15:00 -3°C° 0 mm 2 mps 750 mmHg 93%
    16:00 -3°C° 0 mm 2 mps 751 mmHg 94%
    17:00 -3°C° 0 mm 2 mps 751 mmHg 94%
    18:00 -3°C° 0 mm 2 mps 752 mmHg 94%
    19:00 -3°C° 0 mm 2 mps 752 mmHg 94%
    20:00 -4°C° 0 mm 2 mps 753 mmHg 94%
    21:00 -4°C° 0 mm 2 mps 753 mmHg 94%
    22:00 -4°C° 0 mm 2 mps 754 mmHg 94%
    23:00 -4°C° 0 mm 2 mps 754 mmHg 93%

    19 December, Tuesday

    Time Temperature Precipitation Wind Pressure Humidity
    00:00 -4°C° 0 mm 2 mps 755 mmHg 93%
    01:00 -4°C° 0 mm 2 mps 755 mmHg 93%
    02:00 -4°C° 0 mm 2 mps 756 mmHg 92%
    03:00 -4°C° 0 mm 2 mps 756 mmHg 92%
    04:00 -4°C° 0 mm 2 mps 757 mmHg 92%
    05:00 -4°C° 0 mm 2 mps 757 mmHg 91%
    06:00 -4°C° 0 mm 2 mps 758 mmHg 91%
    07:00 -4°C° 0 mm 2 mps 758 mmHg 91%
    08:00 -3°C° 0 mm 2 mps 759 mmHg 91%
    09:00 -3°C° 0 mm 2 mps 759 mmHg 90%
    10:00 -2°C° 0 mm 2 mps 760 mmHg 90%
    11:00 -2°C° 0 mm 2 mps 760 mmHg 90%
    12:00 -1°C° 0 mm 2 mps 760 mmHg 90%
    13:00 -1°C° 0 mm 2 mps 760 mmHg 89%
    14:00 -1°C° 0 mm 2 mps 760 mmHg 90%
    15:00 -2°C° 0 mm 2 mps 760 mmHg 90%
    16:00 -2°C° 0 mm 2 mps 760 mmHg 90%
    17:00 -3°C° 0 mm 2 mps 760 mmHg 91%
    18:00 -3°C° 0 mm 2 mps 760 mmHg 91%
    19:00 -3°C° 0 mm 2 mps 760 mmHg 91%
    20:00 -3°C° 0.1 mm 2 mps 760 mmHg 92%
    21:00 -3°C° 0.1 mm 2 mps 759 mmHg 93%
    22:00 -2°C° 0.1 mm 2 mps 759 mmHg 95%
    23:00 -2°C° 0.4 mm 2 mps 759 mmHg 95%
    Show more